Newton, NJ

12:08 AM EST on January 21, 2017 (GMT -0500)
Andover

Weather History for K12N - October, 2014

Change the Weather History Date:

Wednesday, October 22, 2014

  Actual Average (KFWN) Record (KFWN)
Temperature  
Mean Temperature 52 °F -  
Max Temperature 54 °F 60 °F 79 °F (1979)
Min Temperature 48 °F 33 °F 18 °F (1972)
Degree Days  
Heating Degree Days 14    
Growing Degree Days 2 (Base 50)    
Moisture  
Dew Point 49 °F    
Average Humidity 91    
Maximum Humidity 97    
Minimum Humidity 80    
Precipitation  
Precipitation 0.53 in - - ()
Sea Level Pressure  
Sea Level Pressure 29.91 in    
Wind  
Wind Speed 7 mph (NNE)    
Max Wind Speed 12 mph    
Max Gust Speed 30 mph    
Averages and records for this station are not official NWS values.
T = Trace of Precipitation, MM = Missing Value Source: NWS Daily Summary

Daily Weather History Graph

Daily Weather History Graph

Search for Another Location

Airport or City:

Trip Planner

Search our weather history database for the weather conditions in past years. The results will help you decide how hot, cold, wet, or windy it might be!

Date:

Astronomy

Oct. 22, 2014 Rise Set
Actual Time 7:18 AM EDT 6:08 PM EDT
Civil Twilight 6:50 AM EDT 6:35 PM EDT
Nautical Twilight 6:18 AM EDT 7:08 PM EDT
Astronomical Twilight 5:46 AM EDT 7:39 PM EDT
Moon 5:56 AM EDT (10/22) 5:33 PM EDT (10/22)
Length of Visible Light 11h 45m
Length of Day
10h 49m
Waning Crescent, 2% of the Moon is Illuminated
Oct 22
Waning Crescent
Oct 23
New
Oct 30
First Quarter
Nov 6
Full
Nov 14
Last Quarter

Hourly Weather History & Observations

Time (EDT) Temp. Dew Point Humidity Pressure Visibility Wind Dir Wind Speed Gust Speed Precip Events Conditions
12:54 AM 52.0 °F 50.0 °F 93% 29.92 in - NNE 5.8 mph - N/A   Unknown
1:54 AM 52.0 °F 51.1 °F 97% 29.91 in - Variable 6.9 mph - N/A   Unknown
2:54 AM 53.1 °F 51.1 °F 93% 29.91 in - NE 4.6 mph - N/A   Unknown
3:54 AM 52.0 °F 50.0 °F 93% 29.91 in - NE 9.2 mph - N/A   Unknown
4:54 AM 52.0 °F 50.0 °F 93% 29.92 in - NE 5.8 mph - 0.01 in   Unknown
5:54 AM 51.1 °F 50.0 °F 96% 29.93 in - NE 6.9 mph - 0.04 in   Unknown
6:54 AM 51.1 °F 50.0 °F 96% 29.94 in - Variable 5.8 mph - 0.14 in   Unknown
7:54 AM 50.0 °F 48.9 °F 96% 29.96 in - Variable 6.9 mph - 0.03 in   Unknown
8:54 AM 51.1 °F 48.9 °F 92% 29.96 in - NE 8.1 mph 18.4 mph N/A   Unknown
9:54 AM 51.1 °F 48.9 °F 92% 29.97 in - NE 10.4 mph 18.4 mph N/A   Unknown
10:54 AM 52.0 °F 48.0 °F 86% 29.99 in - NE 9.2 mph 20.7 mph N/A   Unknown
11:54 AM 52.0 °F 48.0 °F 86% 29.97 in - NE 11.5 mph 20.7 mph N/A   Unknown
12:54 PM 52.0 °F 48.0 °F 86% 29.95 in - NE 9.2 mph 20.7 mph N/A   Unknown
1:54 PM 53.1 °F 48.0 °F 83% 29.92 in - North 8.1 mph - N/A   Unknown
2:54 PM 53.1 °F 46.9 °F 80% 29.91 in - NNE 8.1 mph 29.9 mph N/A   Unknown
3:54 PM 52.0 °F 48.0 °F 86% 29.91 in - Variable 5.8 mph - N/A   Unknown
4:54 PM 53.1 °F 46.9 °F 80% 29.89 in - NNE 8.1 mph - N/A   Unknown
5:54 PM 51.1 °F 48.9 °F 92% 29.89 in - Variable 5.8 mph - 0.04 in   Unknown
6:54 PM 51.1 °F 48.9 °F 92% 29.88 in - North 6.9 mph - 0.04 in   Unknown
7:54 PM 50.0 °F 48.0 °F 93% 29.87 in - Variable 6.9 mph - 0.03 in   Unknown
8:54 PM 50.0 °F 48.0 °F 93% 29.86 in - North 6.9 mph - 0.04 in   Unknown
9:54 PM 50.0 °F 48.0 °F 93% 29.85 in - Variable 6.9 mph - 0.04 in   Unknown
10:54 PM 50.0 °F 46.9 °F 89% 29.82 in - North 10.4 mph 16.1 mph 0.02 in   Unknown
11:54 PM 48.9 °F 46.9 °F 93% 29.81 in - North 9.2 mph - 0.10 in   Unknown